RH
86 87 91 88 78 70 65 62 54 54 58 59 54 47 38 34 34 58 39 31 32 29 42 38 42 43 70 80 80 73 81 77 88 95 87 85 82 85 80 75 82 90 87 88 80 84 79 63 64 70 70 64 56 51
86 92 84 76 72 66 60 60 65 64 58 56 50 48 46 50 53 58 72 65 44 40 41 50 46 46 51 49 58 54 77 92 95 91 92 94 88 82 69 81 59 68 65 75 73 73 67 63 60 46 46 41 34 44
91 85 77 68 64 65 66 66 65 63 57 43 44 54 58 57 54 45 40 63 61 59 54 50 52 48 45 44 60 51 44 52 60 76 88 91 81 79 79 72 67 44 41 70 63 30 32 36 37 37 44 54 53 56
72 68 65 67 69 71 72 70 65 55 42 43 58 62 62 54 42 23 16 27 42 55 64 57 55 56 56 70 52 54 50 51 50 55 56 59 58 66 63 65 59 40 52 44 54 45 62 55 58 64 69 64 61 68
74 73 73 71 69 69 69 66 62 53 53 65 69 61 52 46 25 20 26 62 81 83 72 48 41 42 48 58 58 49 48 29 61 67 64 59 61 72 50 50 26 27 46 76 89 91 99 90 93 99 94 93 87 90
82 81 78 74 70 72 75 73 68 67 70 64 57 50 42 21 19 21 47 74 79 66 60 33 21 28 49 61 53 45 51 39 73 65 64 58 56 85 80 56 17 46 59 65 76 88 89 83 82 79 86 89 86 85
96 92 84 79 78 74 74 73 73 72 67 64 58 35 20 20 25 39 76 89 78 56 26 31 39 52 53 66 48 44 41 47 70 82 64 62 65 90 70 58 35 66 80 96 96 88 88 90 91 89 86 89 91 91
90 86 83 80 79 76 76 72 67 66 64 57 30 22 25 34 52 76 76 65 61 29 36 55 50 48 58 65 77 51 57 61 69 71 61 52 64 75 86 55 78 98 92 96 97 96 96 94 96 94 95 94 94 91
82 79 79 80 77 72 66 63 57 52 36 26 29 41 57 74 88 84 74 62 33 32 38 48 55 59 63 68 75 64 65 67 70 69 60 86 86 87 85 96 97 97 97 89 94 94 93 90 79 79 96 96 95 92
68 65 62 60 61 64 63 55 36 32 34 51 58 73 82 81 78 64 41 38 42 46 52 52 73 91 92 95 94 96 97 96 97 73 92 95 85 95 97 92 83 67 80 94 93 86 75 58 76 90 95 97 98 97
68 65 60 56 54 50 39 34 41 55 62 72 88 94 86 72 49 39 42 43 78 86 71 68 86 94 94 96 98 98 95 94 97 92 96 94 96 82 65 72 67 59 57 61 72 91 69 99 95 95 95 98 100 96
68 60 49 37 30 32 37 48 58 59 73 91 96 100 73 42 41 57 44 79 90 91 96 94 91 95 94 96 98 98 96 96 78 95 96 96 85 56 56 59 59 57 56 57 60 84 57 92 96 96 98 98 100 90
59 44 33 31 32 34 38 55 67 85 91 87 92 90 93 75 53 48 72 68 86 81 67 60 94 97 96 96 94 95 96 85 84 96 96 94 78 70 55 43 43 46 44 45 42 42 50 52 92 96 96 99 96 99
53 40 31 30 31 37 54 56 67 82 90 97 93 76 46 57 51 66 94 98 82 48 60 87 90 97 96 97 94 97 87 87 95 96 96 95 82 66 58 48 46 45 41 37 33 27 22 33 48 92 96 96 96 94
47 40 35 32 32 34 50 86 83 85 95 98 94 68 45 41 71 95 94 79 53 55 68 62 72 95 98 98 96 95 96 94 96 96 96 95 88 70 58 52 52 49 45 38 33 27 18 14 25 47 86 83 90 96
42 39 36 35 34 45 74 88 90 92 100 99 93 63 39 42 49 58 60 55 41 45 59 68 78 94 90 93 89 76 72 78 87 96 96 98 95 80 65 55 52 49 45 42 35 27 20 17 11 22 46 86 85 92
37 33 34 34 39 62 87 93 97 98 98 90 71 61 59 41 23 26 67 47 37 39 68 87 78 68 77 69 63 61 83 95 97 95 96 96 94 87 67 62 62 55 47 47 47 35 25 20 16 9 22 45 88 85
37 70 87 85 82 89 94 96 97 98 87 74 70 61 62 48 34 24 27 27 26 32 72 93 90 82 67 60 48 64 75 81 89 82 84 94 87 63 64 71 74 62 54 54 60 57 39 31 31 18 7 23 45 81
60 94 94 88 93 93 96 96 96 96 75 70 61 58 62 50 39 33 23 20 22 26 73 90 92 74 45 55 73 78 74 86 87 81 63 40 35 35 57 67 58 53 62 70 61 54 52 53 50 40 21 7 19 44
100 99 96 82 89 98 100 95 86 86 76 70 69 66 77 52 39 30 22 21 30 80 98 98 63 46 53 56 63 67 80 80 61 64 53 44 40 36 36 33 39 56 68 78 78 68 60 54 57 50 40 23 8 16
95 100 96 96 95 100 99 96 92 86 80 73 63 69 54 53 50 46 43 45 80 94 84 56 50 76 74 80 80 88 97 97 96 96 79 54 53 53 58 64 70 47 63 54 45 71 75 65 56 52 44 40 21 10
99 99 92 82 86 93 87 76 73 76 83 75 72 73 64 48 42 45 52 55 55 53 60 81 90 96 97 96 97 96 93 93 81 93 82 73 69 75 80 82 83 82 65 52 41 32 60 71 67 58 48 40 34 17
100 100 100 100 96 96 77 74 78 76 85 78 68 78 76 65 61 72 85 81 76 82 97 98 97 97 96 96 96 98 97 92 86 89 91 89 100 100 100 97 94 71 54 48 42 65 74 65 59 56 52 43 35 26
100 99 99 98 98 92 82 81 82 85 86 85 80 82 74 67 78 90 88 79 90 80 78 77 79 87 98 100 97 98 100 99 100 100 100 100 98 96 94 84 64 57 68 74 73 92 97 89 68 56 52 44 36 26
99 93 95 92 91 94 94 83 74 85 82 85 95 87 76 81 97 92 81 95 81 72 76 80 91 98 100 100 100 100 100 97 88 77 60 51 51 52 58 68 76 82 96 95 94 92 91 80 66 55 45 34 26 20
97 97 87 90 92 91 92 94 91 89 95 100 98 88 79 85 99 96 95 93 96 98 100 99 98 98 96 89 71 47 37 34 38 54 69 81 85 89 100 100 100 98 88 80 70 62 53 45 38 31 27 24 21 19
94 90 90 83 84 82 91 91 92 94 90 92 86 78 85 97 95 90 91 93 98 100 96 88 75 57 48 40 40 52 61 67 72 77 79 91 97 100 100 99 96 91 85 87 88 79 71 67 61 52 37 27 23 20
86 76 76 81 84 83 88 86 86 86 86 82 94 90 95 91 93 96 96 93 93 98 100 76 59 56 57 55 53 56 65 75 84 91 98 100 100 100 100 100 100 100 100 80 56 50 50 52 55 60 57 45 31 24
64 70 84 82 81 78 70 59 54 59 75 92 97 100 99 99 98 99 100 97 83 73 73 75 71 64 51 53 62 78 84 86 84 79 78 76 74 74 83 88 88 82 66 52 47 46 46 48 53 56 55 48 33 25
64 59 62 56 53 46 41 64 75 86 91 96 96 95 95 96 94 81 67 63 81 91 86 86 82 54 51 58 69 71 71 71 71 70 68 62 59 58 55 52 49 46 46 44 44 43 45 47 54 55 51 41 32 29
41 40 41 41 42 52 62 71 75 79 82 85 90 92 83 73 67 65 60 83 99 100 100 83 58 56 55 56 56 54 50 55 57 63 71 76 81 82 84 84 85 84 79 71 64 55 51 54 53 46 39 32 33 49
38 44 49 56 60 67 74 79 81 79 77 76 69 69 64 58 51 49 56 88 100 91 63 62 59 51 54 58 57 51 46 42 42 45 50 54 55 65 77 82 87 87 86 79 69 67 59 49 44 40 35 38 60 77
46 50 56 62 72 83 89 84 79 74 67 67 65 60 55 56 53 52 53 67 71 71 81 75 66 60 62 55 48 47 54 56 52 48 48 50 51 52 55 57 57 58 54 48 46 47 46 47 46 50 66 81 83 86
Wind_Speed
26 24 24 24 22 19 17 15 14 13 13 12 11 10 9 9 10 9 8 9 10 13 12 14 13 13 16 14 12 16 13 12 11 13 12 11 12 8 11 13 13 17 16 20 13 17 15 16 20 18 26 37 38 35
22 21 20 19 17 16 16 16 15 14 13 11 10 11 11 11 11 9 7 6 6 8 6 8 10 11 12 12 20 21 16 9 4 6 7 11 16 25 28 30 26 23 21 22 24 26 35 41 41 42 40 42 43 40
21 19 18 17 18 17 15 15 14 12 10 11 12 12 11 9 7 6 6 4 3 2 5 8 8 11 13 12 13 20 14 16 19 17 21 20 21 21 25 25 27 33 31 27 33 41 42 43 42 41 38 37 37 35
18 18 18 18 16 15 15 13 11 10 11 12 11 10 8 6 5 4 3 4 6 7 9 5 7 5 10 13 12 11 13 17 19 19 21 24 25 19 24 29 34 34 33 36 38 36 33 31 29 30 31 30 33 32
18 19 18 16 15 13 12 11 10 11 12 12 9 7 5 4 3 3 2 3 6 8 11 12 11 14 14 14 17 20 17 15 16 17 18 23 25 26 26 27 34 29 26 25 34 35 35 38 38 38 40 41 41 42
16 16 15 14 13 12 12 12 11 11 10 8 7 5 4 3 3 3 3 4 6 8 14 17 14 12 11 13 15 15 17 16 14 17 19 23 22 18 18 34 27 18 21 24 33 34 40 43 46 47 49 51 51 52
15 15 13 14 13 12 12 11 10 9 7 6 5 4 4 3 3 4 3 3 4 11 13 12 7 9 7 7 9 10 7 10 14 20 23 22 25 25 33 39 26 23 16 25 31 37 40 40 40 37 38 40 43 44
16 16 15 14 13 11 10 9 8 7 7 5 4 2 2 2 4 4 4 6 7 9 9 5 9 11 7 9 12 11 14 15 19 22 25 27 29 30 31 22 22 21 26 30 28 31 36 37 34 34 37 39 40 37
15 14 13 12 11 11 9 8 6 5 5 3 2 1 2 5 4 4 5 7 8 9 6 7 13 13 6 6 9 11 13 19 20 25 22 19 19 17 20 24 27 18 24 33 29 28 29 30 33 30 34 28 29 29
14 13 12 11 9 9 7 6 6 5 3 2 4 4 5 4 4 6 7 8 8 4 6 7 7 10 7 10 16 16 9 8 10 16 8 13 18 18 13 15 16 21 23 29 31 29 30 31 27 31 24 27 28 29
11 8 8 8 9 8 7 7 6 5 4 6 6 4 1 3 4 5 4 2 2 4 4 7 13 15 16 18 18 8 6 6 6 5 6 4 4 5 9 13 14 15 18 24 31 31 34 26 32 25 21 25 29 24
8 8 9 9 10 9 9 7 6 6 7 9 5 2 3 3 3 3 3 2 2 1 6 11 17 15 18 9 4 5 6 4 6 6 4 3 5 11 11 13 15 18 22 25 28 32 34 28 27 21 21 22 26 23
9 8 9 9 9 8 6 6 6 7 7 8 5 2 3 3 4 3 2 2 1 7 10 16 16 20 10 4 6 5 4 7 5 5 4 4 10 13 15 18 21 22 24 26 27 27 30 31 25 24 22 19 18 19
9 8 7 7 6 6 6 5 5 9 8 7 5 4 4 5 4 4 4 6 6 11 14 12 16 16 15 7 5 5 6 5 5 5 4 11 16 19 21 22 25 27 29 30 31 31 30 30 29 24 20 24 20 14
8 7 6 6 6 6 6 5 6 9 11 6 4 4 8 5 8 8 11 11 9 9 11 14 14 9 9 7 5 5 4 5 6 2 15 23 20 21 23 25 27 30 31 32 34 34 33 30 28 26 21 19 21 20
7 6 5 6 7 7 7 6 7 11 13 11 9 7 6 9 10 13 13 12 11 12 11 13 9 5 5 4 4 4 5 5 13 16 30 18 21 24 27 30 31 32 33 34 34 34 31 30 28 25 24 20 19 19
7 6 5 6 8 9 9 8 8 11 9 11 15 15 15 16 15 14 15 14 15 15 14 9 5 4 6 6 8 7 10 20 26 27 20 19 23 28 31 31 31 33 35 33 33 32 29 27 27 25 22 20 17 15
8 6 4 4 6 9 9 10 11 13 18 22 21 17 18 16 17 18 18 17 18 18 17 16 17 19 18 20 24 26 31 31 32 34 37 31 34 34 32 32 32 34 34 33 31 31 28 27 26 25 22 19 19 17
10 8 6 5 8 9 10 13 16 20 24 23 23 21 21 20 17 18 20 21 21 21 22 25 16 21 31 27 27 31 32 31 29 27 27 29 32 33 32 34 37 35 31 29 30 31 29 27 28 27 25 21 19 19
6 8 6 6 8 9 10 14 16 20 25 24 23 24 21 18 16 16 17 18 21 22 25 30 36 36 28 23 25 27 28 29 29 32 33 31 30 29 31 31 29 30 30 30 30 29 28 27 27 28 27 23 21 19
11 9 9 9 11 13 15 15 18 16 17 20 19 17 19 20 20 19 19 19 24 30 34 36 33 25 23 27 31 32 35 37 33 37 35 34 37 37 39 39 30 24 27 39 44 38 31 30 27 27 27 27 23 20
10 12 11 11 13 16 18 18 18 21 24 28 27 24 22 20 17 15 16 22 27 28 28 25 24 27 30 31 31 32 32 32 35 36 33 35 38 39 38 36 32 34 46 48 53 45 39 34 34 31 27 27 27 23
11 12 12 11 10 10 14 17 21 23 24 26 23 19 16 19 21 20 19 22 26 26 26 26 26 26 28 34 34 32 33 35 34 36 37 39 36 35 35 34 39 50 50 45 45 40 36 33 33 33 32 31 28 26
12 15 14 10 14 15 19 20 21 22 23 22 19 19 22 22 20 22 28 26 24 28 29 30 31 32 32 31 29 25 24 25 28 30 29 33 37 38 41 51 50 43 37 38 40 39 39 38 35 35 33 33 31 29
14 13 11 15 16 14 19 21 20 18 21 18 18 21 25 23 25 28 29 28 25 26 28 32 35 37 35 33 30 28 29 39 46 51 53 52 50 47 44 39 36 31 34 37 37 36 34 33 34 34 33 32 32 30
16 12 13 14 14 16 17 19 18 17 17 16 18 23 29 31 31 21 23 27 29 31 32 30 27 30 35 48 60 60 55 50 45 40 38 37 36 33 30 31 29 26 27 28 29 30 30 30 30 30 29 29 28 29
28 22 20 20 19 22 24 25 25 26 31 34 36 34 27 18 17 23 26 26 23 27 39 50 53 55 53 48 38 34 34 35 35 34 31 27 25 25 24 22 21 21 22 25 28 31 33 32 31 29 28 26 26 26
34 34 32 29 28 28 30 32 34 38 27 18 14 18 13 15 23 28 32 41 46 49 51 50 43 36 31 32 34 33 31 28 25 23 21 19 19 20 21 23 25 26 26 28 31 33 34 34 34 34 32 30 27 25
40 38 38 39 37 37 37 36 35 34 29 26 28 31 33 34 40 45 48 49 46 39 36 33 28 29 31 29 27 24 22 21 22 23 24 24 24 25 29 30 31 33 34 36 37 37 36 35 34 33 32 31 29 26
46 40 37 36 36 34 29 24 26 28 30 33 34 37 40 43 47 43 40 36 31 29 28 27 30 28 23 21 21 21 22 24 27 31 35 36 38 38 39 40 41 41 42 42 40 37 33 32 31 30 29 29 29 27
28 25 24 22 22 19 21 25 29 32 35 36 38 42 41 36 38 38 33 27 26 27 27 30 27 22 22 22 23 24 25 28 31 33 34 34 35 36 36 36 36 36 35 34 32 30 29 27 26 26 25 25 25 25
16 15 15 19 20 21 25 31 34 35 33 33 32 31 31 28 28 30 26 26 26 28 30 24 21 21 21 20 22 25 27 28 31 35 36 36 35 34 33 33 31 30 30 30 28 26 24 23 22 21 23 22 21 21
18 18 20 23 25 26 30 33 35 37 37 37 31 19 18 20 21 24 24 24 29 29 26 22 22 23 23 21 21 22 25 29 34 39 41 39 36 33 32 31 30 29 28 27 25 23 21 20 19 19 19 19 19 19
Wind_Direction
122 127 128 129 130 134 136 137 139 143 146 149 153 156 159 154 147 145 154 167 175 194 206 212 222 228 222 227 227 224 245 267 245 247 271 284 275 291 285 280 305 308 304 299 299 295 277 281 284 297 288 297 299 298
127 126 131 134 136 136 135 138 140 137 137 139 138 138 139 138 149 159 160 164 175 198 236 238 248 258 251 248 250 250 241 225 208 257 246 280 275 287 298 290 298 285 287 291 281 277 286 291 293 293 292 291 292 288
132 136 140 140 137 133 130 133 134 135 140 143 147 147 146 152 158 166 182 191 228 237 254 267 267 263 255 247 258 254 252 257 258 268 276 284 284 286 288 288 293 290 290 288 289 283 286 288 291 293 296 291 291 289
137 139 140 138 136 137 139 142 145 147 149 152 153 159 170 181 191 197 209 244 268 289 294 287 309 313 301 280 261 248 257 263 271 274 269 273 281 286 287 288 288 286 294 296 293 290 303 298 298 294 292 286 285 284
144 145 145 144 143 144 145 150 158 160 161 164 169 178 191 207 220 199 199 263 291 304 302 311 298 286 272 254 260 276 272 264 262 271 275 278 284 292 293 290 287 310 302 294 295 303 301 298 299 293 292 292 291 287
157 157 155 152 152 155 156 162 170 172 172 180 188 196 212 208 216 237 225 257 279 308 316 322 318 303 269 271 267 263 263 272 273 272 274 277 286 290 281 293 311 324 305 296 294 294 284 285 289 291 290 289 286 284
164 161 158 156 156 160 168 175 181 186 189 205 209 204 195 225 246 227 230 201 288 308 315 322 347 343 286 279 276 268 262 284 260 264 271 282 286 289 284 285 325 317 316 305 290 289 291 294 298 296 294 292 290 287
143 149 153 155 161 164 171 181 189 196 202 210 208 204 239 241 222 225 240 266 286 304 314 305 330 352 326 284 283 268 270 266 266 270 276 281 287 284 280 319 317 307 297 303 303 309 310 307 308 306 303 302 300 296
151 155 159 165 173 180 184 185 184 184 182 182 203 211 189 197 212 230 255 273 289 293 290 289 311 325 321 309 296 290 279 276 277 271 280 276 278 260 303 304 299 307 309 309 323 322 318 315 315 313 316 322 320 315
159 161 166 171 175 178 178 175 170 169 164 159 157 170 186 208 249 269 285 292 297 292 266 311 304 310 308 296 297 297 279 266 258 285 284 264 275 298 316 328 327 312 316 330 331 332 332 330 329 332 333 336 329 323
160 165 165 164 167 166 166 165 163 163 164 168 173 171 216 264 273 282 257 245 284 327 313 323 314 308 306 300 301 292 259 266 262 266 235 247 250 328 342 341 335 341 349 350 348 352 348 338 333 334 340 341 341 330
163 163 165 166 164 160 161 169 170 159 159 164 166 212 271 266 249 238 231 196 233 261 282 322 325 331 331 333 270 269 268 253 247 263 245 222 345 357 343 334 337 343 341 344 347 348 352 345 349 342 339 347 350 356
164 166 168 167 165 168 178 178 171 182 185 185 196 245 271 250 238 224 208 204 228 319 326 323 325 327 314 289 249 252 249 243 262 240 232 62 7 356 350 347 348 345 341 341 340 342 344 350 342 344 347 333 341 357
174 175 178 181 186 187 193 204 207 195 208 213 230 232 247 229 230 166 257 288 290 313 325 332 324 309 307 274 246 245 249 248 247 233 182 358 353 357 353 347 342 341 341 340 339 340 340 340 347 341 337 348 339 318
194 198 204 208 215 217 218 219 218 198 192 205 227 241 240 250 225 231 246 253 274 306 317 330 332 304 298 255 245 248 244 253 259 167 344 336 337 338 337 337 341 338 335 334 335 337 336 336 335 341 335 338 341 343
218 229 236 239 235 225 220 229 226 213 224 237 234 245 279 293 270 252 249 257 280 297 306 328 320 284 276 288 287 270 276 289 292 323 328 317 330 331 331 332 333 331 331 330 329 330 332 332 331 328 335 331 334 341
229 231 241 248 235 218 221 222 225 226 239 240 256 268 285 287 278 273 259 271 283 289 295 307 275 265 296 279 284 293 286 298 307 318 316 316 320 325 326 326 324 326 329 326 325 328 326 327 329 326 317 326 321 328
204 202 239 271 229 220 226 231 238 245 252 258 270 286 288 286 279 269 267 268 276 278 277 270 274 270 276 270 284 283 283 291 297 299 301 306 314 315 314 315 318 323 325 325 322 327 324 323 327 325 323 312 320 311
188 209 221 218 218 228 235 249 247 256 266 275 280 286 288 286 274 269 265 268 267 268 264 266 262 268 286 295 290 286 290 295 301 306 304 306 311 313 314 314 314 314 313 316 319 322 321 322 326 324 319 317 306 307
165 202 250 244 217 226 255 254 262 268 276 288 291 291 287 283 281 271 267 264 268 267 257 255 276 299 305 298 291 287 290 291 297 305 303 304 306 309 314 317 318 318 317 313 311 315 314 314 314 319 318 313 308 294
224 245 255 249 235 233 241 254 263 278 288 291 299 304 300 300 295 289 280 272 267 266 273 287 300 296 298 292 287 291 285 289 286 301 302 303 303 302 305 309 308 324 325 328 320 307 305 306 310 307 313 313 305 299
219 236 249 248 247 254 259 256 264 272 277 283 291 301 300 303 306 313 296 278 277 286 294 297 291 284 281 283 290 295 297 298 298 296 291 297 298 298 299 300 301 305 314 320 319 306 297 300 298 300 303 303 301 296
229 249 256 256 263 256 264 270 268 276 276 289 301 300 303 317 314 317 304 297 311 315 300 293 290 293 290 296 295 291 291 292 290 288 290 295 292 287 287 285 300 312 312 313 309 297 289 285 288 292 294 293 295 292
237 246 251 244 229 245 267 273 284 284 286 287 291 299 308 304 303 295 291 304 293 292 292 291 293 295 293 285 281 280 272 260 264 267 275 286 288 287 287 296 306 306 301 294 290 287 284 283 281 282 283 284 287 288
237 251 238 246 252 252 261 275 288 289 286 295 291 296 302 305 289 289 294 286 281 287 287 288 290 293 281 273 275 278 284 290 294 294 295 297 299 299 298 295 295 292 288 289 290 290 288 286 287 286 284 283 282 282
240 240 234 245 247 259 267 275 288 294 300 287 279 295 298 294 288 277 278 281 283 285 285 285 285 286 291 296 300 303 303 303 302 301 300 299 299 298 296 296 295 291 293 294 297 298 297 295 292 289 285 284 282 281
236 240 252 256 260 273 275 278 281 280 285 286 290 294 292 270 270 277 284 283 281 287 296 300 300 300 301 303 303 302 302 303 302 301 303 303 301 301 296 295 295 296 299 302 306 307 306 304 302 300 295 289 287 285
249 248 250 258 260 268 274 279 282 286 290 293 279 271 261 268 276 283 285 289 295 298 297 299 303 307 309 309 306 308 307 304 304 304 306 307 299 291 289 290 291 294 298 302 303 304 304 301 298 297 295 292 289 287
247 252 255 258 266 272 276 278 280 282 283 280 278 278 278 279 286 291 294 294 295 296 300 304 307 312 313 310 309 307 308 314 317 316 312 308 301 296 298 298 297 297 296 296 298 301 298 298 297 294 292 290 289 287
250 256 262 267 269 272 279 281 282 286 289 288 287 288 290 295 297 297 296 298 301 303 306 307 312 318 319 324 321 321 320 316 313 312 309 307 304 302 300 298 297 296 295 294 294 295 291 291 290 288 285 285 286 287
252 255 258 261 269 281 286 289 290 288 288 289 293 295 300 302 296 295 299 298 296 298 302 307 314 317 321 321 322 323 326 324 324 322 318 315 312 308 306 305 303 302 301 300 298 294 292 290 289 285 281 282 284 285
238 242 254 263 271 278 289 304 303 299 298 296 298 301 301 295 293 293 298 293 292 296 304 308 312 322 328 330 331 332 332 337 340 337 331 324 319 315 313 313 311 307 306 306 304 300 297 294 290 286 285 285 283 282
245 254 263 269 275 282 294 304 306 305 307 310 314 308 309 307 296 303 303 295 296 301 305 307 314 322 324 325 327 332 338 343 343 340 337 332 325 319 314 313 312 310 308 306 304 303 301 296 293 291 287 286 287 287